FW7348 Weather Reports


Display with metric or nautical units.
time (UTC)temp
F
wind
direction
speed
MPH
gust
MPH
rain 1hr
in
rain 24hr
in
rain mn
in
humidity
%
barometer
mb
20260503020500 44 7 1.0 3.0 0.00 0.00 0.00 51 1013.5
20260503015957 44 49 2.0 2.0 0.00 0.00 0.00 52 1013.7
20260503015454 44 88 1.0 2.0 0.00 0.00 0.00 53 1013.6
20260503014950 44 142 1.0 1.0 0.00 0.00 0.00 53 1013.6
20260503014447 44 141 0.0 1.0 0.00 0.00 0.00 52 1013.6
20260503013945 44 142 1.0 1.0 0.00 0.00 0.00 56 1013.9
20260503013442 44 142 1.0 1.0 0.00 0.00 0.00 55 1013.9
20260503012939 44 142 0.0 0.0 0.00 0.00 0.00 54 1013.8
20260503012437 44 142 0.0 1.0 0.00 0.00 0.00 54 1014.2
20260503011933 45 142 0.0 0.0 0.00 0.00 0.00 54 1013.9
20260503011430 45 142 0.0 0.0 0.00 0.00 0.00 51 1013.9
20260503010927 44 142 0.0 1.0 0.00 0.00 0.00 53 1013.8
20260503010424 45 142 0.0 1.0 0.00 0.00 0.00 54 1013.8
20260503005921 44 142 1.0 1.0 0.00 0.00 0.00 52 1013.8
20260503005418 45 143 0.0 1.0 0.00 0.00 0.00 55 1014.0
20260503004915 45 142 0.0 1.0 0.00 0.00 0.00 54 1014.3
20260503004412 46 143 1.0 1.0 0.00 0.00 0.00 50 1014.0
20260503003909 46 143 0.0 0.0 0.00 0.00 0.00 48 1014.4
20260503003405 47 143 0.0 0.0 0.00 0.00 0.00 46 1014.2
20260503002903 47 142 0.0 1.0 0.00 0.00 0.00 45 1014.4
20260503002400 46 141 0.0 1.0 0.00 0.00 0.00 45 1014.3
20260503001856 47 158 0.0 1.0 0.00 0.00 0.00 45 1014.6
20260503001353 48 144 2.0 3.0 0.00 0.00 0.00 44 1014.5
20260503000850 47 196 2.0 2.0 0.00 0.00 0.00 43 1014.6
20260503000348 48 182 2.0 3.0 0.00 0.00 0.00 43 1014.5
20260502235844 48 154 0.0 3.0 0.00 0.00 0.00 42 1014.6
20260502235341 48 155 1.0 1.0 0.00 0.00 0.00 43 1014.8
20260502234838 48 151 1.0 2.0 0.00 0.00 0.00 42 1014.7
20260502234335 48 147 0.0 0.0 0.00 0.00 0.00 43 1014.7
20260502233832 48 159 0.0 1.0 0.00 0.00 0.00 44 1014.8
20260502233328 47 156 1.0 1.0 0.00 0.00 0.00 43 1015.0
20260502232825 48 167 0.0 2.0 0.00 0.00 0.00 43 1015.1
20260502232321 48 147 3.0 3.0 0.00 0.00 0.00 43 1015.0
20260502231818 47 182 2.0 2.0 0.00 0.00 0.00 43 1015.0
20260502231316 48 186 3.0 6.0 0.00 0.00 0.00 41 1015.1
20260502230814 48 162 3.0 5.0 0.00 0.00 0.00 43 1015.1
20260502230312 48 215 3.0 5.0 0.00 0.00 0.00 43 1015.2
20260502225808 48 149 3.0 5.0 0.00 0.00 0.00 43 1015.0
20260502225305 49 155 3.0 6.0 0.00 0.00 0.00 41 1015.4
20260502224801 50 194 1.0 3.0 0.00 0.00 0.00 42 1015.3
20260502224258 50 210 3.0 6.0 0.00 0.00 0.00 42 1015.2
20260502223756 48 175 3.0 5.0 0.00 0.00 0.00 44 1015.3
20260502223254 50 202 3.0 5.0 0.00 0.00 0.00 42 1015.6
20260502222751 50 201 4.0 6.0 0.00 0.00 0.00 41 1015.5
20260502222248 50 183 12.0 15.0 0.00 0.00 0.00 41 1015.7
20260502221743 50 217 7.0 10.0 0.00 0.00 0.00 42 1015.6
20260502221240 49 134 2.0 14.0 0.00 0.00 0.00 43 1015.7
20260502220737 50 185 1.0 2.0 0.00 0.00 0.00 44 1015.6
20260502220233 48 173 1.0 8.0 0.00 0.00 0.00 45 1015.9
20260502215730 48 159 5.0 9.0 0.00 0.00 0.00 46 1015.8
20260502215227 51 193 3.0 5.0 0.00 0.00 0.00 45 1015.9
20260502214724 51 211 1.0 3.0 0.00 0.00 0.00 43 1016.2
20260502214221 49 166 0.0 2.0 0.00 0.00 0.00 46 1016.2
20260502213718 50 226 3.0 5.0 0.00 0.00 0.00 44 1016.1
20260502213216 49 180 6.0 9.0 0.00 0.00 0.00 47 1016.5
20260502212714 49 193 2.0 5.0 0.00 0.00 0.00 46 1016.1
20260502212212 51 171 5.0 7.0 0.00 0.00 0.00 47 1016.4
20260502211708 51 138 7.0 9.0 0.00 0.00 0.00 44 1016.4
20260502211205 50 134 5.0 7.0 0.00 0.00 0.00 47 1016.2
20260502210702 51 204 5.0 8.0 0.00 0.00 0.00 45 1016.3
20260502210159 51 276 3.0 6.0 0.00 0.00 0.00 42 1016.4
20260502205656 51 216 6.0 8.0 0.00 0.00 0.00 46 1016.4
20260502205153 51 214 5.0 9.0 0.00 0.00 0.00 45 1016.7
20260502204649 51 245 4.0 6.0 0.00 0.00 0.00 45 1016.8
20260502204147 52 243 5.0 8.0 0.00 0.00 0.00 45 1016.8
20260502203644 50 186 7.0 13.0 0.00 0.00 0.00 46 1016.7
20260502203143 53 209 8.0 10.0 0.00 0.00 0.00 43 1017.0
20260502202637 54 198 4.0 13.0 0.00 0.00 0.00 44 1017.2
20260502202135 53 255 5.0 8.0 0.00 0.00 0.00 45 1017.2
20260502201632 52 29 3.0 8.0 0.00 0.00 0.00 46 1017.3
20260502201128 52 229 3.0 13.0 0.00 0.00 0.00 44 1017.3
20260502200624 51 192 8.0 11.0 0.00 0.00 0.00 44 1017.4
20260502200121 51 191 5.0 13.0 0.00 0.00 0.00 48 1017.4
20260502195620 52 173 6.0 8.0 0.00 0.00 0.00 44 1017.5
20260502195115 51 219 5.0 9.0 0.00 0.00 0.00 46 1017.7
20260502194612 50 257 6.0 14.0 0.00 0.00 0.00 46 1017.6
20260502194108 53 67 4.0 10.0 0.00 0.00 0.00 42 1017.7
20260502193605 52 254 2.0 8.0 0.00 0.00 0.00 45 1017.7
20260502193102 51 203 7.0 9.0 0.00 0.00 0.00 48 1017.8
20260502192558 51 176 8.0 11.0 0.00 0.00 0.00 48 1018.0
20260502192056 52 220 3.0 7.0 0.00 0.00 0.00 50 1017.9
20260502191552 51 158 3.0 7.0 0.00 0.00 0.00 47 1018.0
20260502191050 52 215 5.0 6.0 0.00 0.00 0.00 48 1017.9
20260502190547 50 153 5.0 10.0 0.00 0.00 0.00 51 1018.3
20260502190038 51 224 4.0 8.0 0.00 0.00 0.00 49 1018.3
20260502185533 50 253 6.0 14.0 0.00 0.00 0.00 50 1018.1
20260502185030 49 160 3.0 9.0 0.00 0.00 0.00 52 1018.3
20260502184526 50 204 3.0 9.0 0.00 0.00 0.00 50 1018.3
20260502184022 51 219 4.0 5.0 0.00 0.00 0.00 50 1018.5
20260502183519 49 189 6.0 10.0 0.00 0.00 0.00 51 1018.4
20260502183015 52 200 4.0 7.0 0.00 0.00 0.00 51 1018.4
20260502182509 52 236 3.0 6.0 0.00 0.00 0.00 50 1018.4
20260502182006 50 222 6.0 8.0 0.00 0.00 0.00 54 1018.6
20260502181504 50 217 4.0 8.0 0.00 0.00 0.00 52 1018.6
20260502181003 50 172 3.0 13.0 0.00 0.00 0.00 54 1018.8
20260502180459 47 199 5.0 7.0 0.00 0.00 0.00 54 1018.7
20260502170418 46 123 6.0 9.0 0.00 0.00 0.00 57 1019.7
20260502163901 47 133 7.0 10.0 0.00 0.00 0.00 54 1019.6
20260502163358 43 202 5.0 13.0 0.00 0.00 0.00 63 1019.8
20260502162855 43 179 5.0 8.0 0.00 0.00 0.00 61 1019.9
20260502162352 44 187 4.0 6.0 0.00 0.00 0.00 60 1019.9
20260502161849 45 134 5.0 10.0 0.00 0.00 0.00 56 1020.2
20260502161345 43 194 9.0 11.0 0.00 0.00 0.00 59 1020.3
20260502160843 44 165 6.0 8.0 0.00 0.00 0.00 65 1020.2
20260502160341 45 190 5.0 9.0 0.00 0.00 0.00 60 1020.2
20260502152316 44 211 4.0 9.0 0.00 0.00 0.00 60 1020.6
20260502151814 44 140 3.0 5.0 0.00 0.00 0.00 60 1020.5
20260502151310 44 194 5.0 7.0 0.00 0.00 0.00 60 1020.6
20260502150808 42 135 6.0 8.0 0.00 0.00 0.00 64 1020.5
20260502150304 44 201 6.0 7.0 0.00 0.00 0.00 60 1020.9
20260502130653 49 142 1.0 3.0 0.00 0.00 0.00 53 1021.3
20260502130151 43 143 1.0 2.0 0.00 0.00 0.00 55 1021.3
20260502123636 39 334 0.0 1.0 0.00 0.00 0.00 71 1021.4
20260502123133 37 336 1.0 1.0 0.00 0.00 0.00 72 1021.6
20260502122629 35 332 0.0 0.0 0.00 0.00 0.00 74 1021.5
20260502122126 35 332 0.0 1.0 0.00 0.00 0.00 76 1021.4
20260502121624 33 332 0.0 1.0 0.00 0.00 0.00 81 1021.7
20260502121121 32 332 1.0 1.0 0.00 0.00 0.00 84 1021.5
20260502120618 31 331 1.0 1.0 0.00 0.00 0.00 84 1021.8
20260502120115 30 332 1.0 1.0 0.00 0.00 0.00 84 1021.7
20260502115613 30 332 2.0 2.0 0.00 0.00 0.00 82 1021.6
20260502115108 29 327 1.0 1.0 0.00 0.00 0.00 85 1021.8
20260502114604 29 327 1.0 2.0 0.00 0.00 0.00 84 1021.8
20260502114102 28 326 2.0 2.0 0.00 0.00 0.00 87 1021.7
20260502113559 28 322 2.0 2.0 0.00 0.00 0.00 87 1021.9
20260502113058 27 322 2.0 2.0 0.00 0.00 0.00 87 1021.7
20260502112555 26 317 2.0 2.0 0.00 0.00 0.00 89 1021.7
20260502112053 26 315 2.0 2.0 0.00 0.00 0.00 90 1021.5
20260502111550 26 315 3.0 3.0 0.00 0.00 0.00 88 1021.8
20260502111047 26 318 2.0 2.0 0.00 0.00 0.00 89 1021.7
20260502110544 26 319 2.0 2.0 0.00 0.00 0.00 91 1021.6
20260502110042 26 319 2.0 2.0 0.00 0.00 0.00 90 1021.5
20260502105539 26 319 2.0 2.0 0.00 0.00 0.00 87 1021.7
20260502105037 26 321 2.0 3.0 0.00 0.00 0.00 86 1021.7
20260502104534 25 322 3.0 3.0 0.00 0.00 0.00 89 1021.6
20260502104031 25 322 2.0 2.0 0.00 0.00 0.00 88 1021.7
20260502103529 25 325 2.0 3.0 0.00 0.00 0.00 91 1021.4
20260502103027 26 321 2.0 2.0 0.00 0.00 0.00 90 1021.4
20260502102522 25 321 1.0 2.0 0.00 0.00 0.00 90 1021.5
20260502102020 25 321 1.0 3.0 0.00 0.00 0.00 92 1021.7
20260502101517 25 321 3.0 5.0 0.00 0.00 0.00 90 1021.7
20260502101016 25 323 3.0 5.0 0.00 0.00 0.00 91 1021.8
20260502100514 26 326 2.0 2.0 0.00 0.00 0.00 89 1022.0
20260502091448 26 335 2.0 2.0 0.00 0.00 0.00 90 1021.8
20260502090946 26 319 0.0 2.0 0.00 0.00 0.00 89 1021.9
20260502090443 26 323 2.0 3.0 0.00 0.00 0.00 90 1022.1
20260502071337 27 321 2.0 5.0 0.00 0.00 0.00 87 1022.3
20260502070835 27 322 2.0 2.0 0.00 0.00 0.00 88 1022.5
20260502070333 27 322 2.0 2.0 0.00 0.00 0.00 88 1022.5
20260502065831 28 322 2.0 2.0 0.00 0.00 0.00 87 1022.6
20260502065329 28 322 1.0 2.0 0.00 0.00 0.00 88 1022.4
20260502064827 28 323 2.0 2.0 0.00 0.00 0.00 87 1022.7
20260502064325 28 322 2.0 2.0 0.00 0.00 0.00 86 1022.6
20260502063822 28 323 2.0 2.0 0.00 0.00 0.00 85 1022.6
20260502063320 28 323 2.0 2.0 0.00 0.00 0.00 87 1022.7
20260502062816 28 323 2.0 2.0 0.00 0.00 0.00 85 1022.8
20260502062314 28 323 1.0 2.0 0.00 0.00 0.00 84 1022.9
20260502061812 28 323 2.0 3.0 0.00 0.00 0.00 83 1022.8
20260502061310 28 330 2.0 2.0 0.00 0.00 0.00 83 1022.9
20260502060805 28 336 2.0 2.0 0.00 0.00 0.00 85 1022.8
20260502060301 28 347 1.0 1.0 0.00 0.00 0.00 87 1022.9
20260502055759 28 347 1.0 1.0 0.00 0.00 0.00 86 1022.8
20260502055256 28 347 1.0 1.0 0.00 0.00 0.00 87 1022.7
20260502054755 28 347 1.0 1.0 0.00 0.00 0.00 85 1022.6
20260502054252 29 349 1.0 2.0 0.00 0.00 0.00 86 1023.0
20260502053750 29 349 1.0 1.0 0.00 0.00 0.00 85 1022.8
20260502053247 30 359 2.0 2.0 0.00 0.00 0.00 84 1022.8
20260502052745 32 40 2.0 2.0 0.00 0.00 0.00 74 1022.9
20260502052243 33 108 1.0 3.0 0.00 0.00 0.00 70 1023.0
20260502051740 35 341 3.0 5.0 0.00 0.00 0.00 66 1022.9
20260502051239 35 323 4.0 6.0 0.00 0.00 0.00 67 1022.6
20260502050735 35 325 3.0 6.0 0.00 0.00 0.00 67 1022.9
20260502050231 35 322 4.0 6.0 0.00 0.00 0.00 67 1022.9
20260502045728 35 329 5.0 7.0 0.00 0.00 0.00 66 1022.9
20260502045225 35 320 5.0 7.0 0.00 0.00 0.00 66 1022.8
20260502044722 35 313 6.0 8.0 0.00 0.00 0.00 65 1022.8
20260502044218 35 307 4.0 6.0 0.00 0.00 0.00 66 1022.8
20260502043716 35 351 4.0 6.0 0.00 0.00 0.00 66 1023.0
20260502043213 35 338 3.0 6.0 0.00 0.00 0.00 66 1022.7
20260502042712 35 332 4.0 7.0 0.00 0.00 0.00 65 1022.8
20260502042210 35 336 3.0 6.0 0.00 0.00 0.00 65 1022.8
20260502041708 35 355 4.0 7.0 0.00 0.00 0.00 65 1022.7
20260502041204 35 295 5.0 7.0 0.00 0.00 0.00 65 1022.8
20260502040701 35 321 4.0 6.0 0.00 0.00 0.00 65 1022.8
20260502040159 35 300 5.0 7.0 0.00 0.00 0.00 66 1022.9
20260502035655 35 308 5.0 6.0 0.00 0.00 0.00 65 1023.0
20260502035151 36 336 5.0 6.0 0.00 0.00 0.00 65 1022.6
20260502034649 36 329 3.0 7.0 0.00 0.00 0.00 65 1022.7
20260502034147 36 335 3.0 9.0 0.00 0.00 0.00 64 1022.9
20260502033645 36 321 3.0 6.0 0.00 0.00 0.00 65 1022.8
20260502033143 36 344 4.0 7.0 0.00 0.00 0.00 64 1022.7
20260502032639 36 320 3.0 5.0 0.00 0.00 0.00 64 1022.7
20260502032135 35 292 3.0 5.0 0.00 0.00 0.00 65 1022.8
20260502031633 35 308 4.0 6.0 0.00 0.00 0.00 66 1023.0
20260502031131 35 333 1.0 3.0 0.00 0.00 0.00 67 1022.8
20260502030629 35 330 3.0 5.0 0.00 0.00 0.00 66 1022.7
20260502030127 35 346 2.0 3.0 0.00 0.00 0.00 65 1022.8
20260502025624 36 314 4.0 6.0 0.00 0.00 0.00 64 1022.6
20260502025122 36 336 2.0 7.0 0.00 0.00 0.00 63 1022.8
20260502024620 36 331 2.0 5.0 0.00 0.00 0.00 65 1022.8
20260502024117 35 331 3.0 5.0 0.00 0.00 0.00 64 1022.7
20260502023615 35 329 3.0 5.0 0.00 0.00 0.00 65 1022.6
20260502023112 34 355 1.0 3.0 0.00 0.00 0.00 68 1022.8
20260502022609 35 5 1.0 2.0 0.00 0.00 0.00 65 1022.8
20260502022106 34 24 3.0 3.0 0.00 0.00 0.00 67 1022.6
20260502021603 32 31 1.0 1.0 0.00 0.00 0.00 73 1023.0
20260502021100 32 34 1.0 2.0 0.00 0.00 0.00 72 1023.0